User: anonymous   Login
Location: ??
(35.5052°N, 139.7262°E)
Time: 20:16:10
(UTC+00:00)
Language:

CBERS-1 - Orbit

View from above orbital plane
View from above orbital plane
View from above satellite
View from above satellite

Ground track
Ground track

The orbit data is extracted from the following two-line orbital elements,

1 25940U 99057A   21266.13236158  .00000040  00000-0  29339-4 0  9990
2 25940  98.6637 217.3794 0006136  63.5370 296.6444 14.35554237149484
Epoch (UTC): 23 September 2021 03:10:36
Eccentricity: 0.0006136
inclination: 98.6637°
perigee height: 769 km
apogee height: 777 km
right ascension of ascending node: 217.3794°
argument of perigee: 63.5370°
revolutions per day: 14.35554237
mean anomaly at epoch: 296.6444°
orbit number at epoch: 14948

The dashed part of the orbit path shows where the satellite is in the earth's shadow,  

DLR